Theta_e
316 318 324 324 335 342 344 344 341 342 346 351 345 347 347 349 350 354 344 328 328 337 339 339 339 339 335 331 330 328 327 326 327 327 328 329 329 329 329 329 329 330 330 328 327 327 327 328 328
317 321 324 322 335 336 342 341 343 343 350 349 349 351 352 353 350 346 335 327 326 332 336 338 338 338 337 334 333 332 330 328 328 328 328 328 328 328 328 329 329 328 327 328 329 329 330 330 331
321 323 324 328 331 329 336 341 342 345 350 350 349 351 352 351 348 344 343 331 325 326 325 328 331 332 333 332 331 330 329 328 328 327 327 327 326 326 327 327 327 328 329 330 332 335 337 338 338
321 323 320 326 328 326 337 340 346 351 350 349 351 351 351 350 348 346 338 331 328 326 325 325 325 326 326 326 325 325 325 325 325 325 325 326 326 327 328 329 333 337 339 339 339 339 338 334 332
322 321 326 325 325 329 337 338 347 350 349 349 348 350 351 349 338 338 338 335 332 332 330 327 326 325 324 324 324 325 326 327 328 328 329 330 332 334 335 337 341 342 339 335 331 329 326 321 316
322 320 326 327 325 337 340 338 346 347 349 350 348 348 351 349 340 341 337 334 333 332 331 331 330 329 329 330 331 332 332 333 333 333 333 334 334 335 340 342 334 321 315 314 314 314 315 317 318
323 324 324 323 326 341 341 342 343 348 350 349 348 348 352 349 346 348 344 336 333 332 331 331 331 331 331 330 330 330 331 331 330 326 324 322 322 324 320 314 316 319 320 320 319 319 319 320 320
320 321 323 321 323 330 342 343 344 347 349 350 348 346 350 350 349 346 341 337 332 330 329 329 328 327 329 332 328 320 316 314 314 314 314 313 313 313 316 319 321 321 321 321 322 321 321 321 322
320 324 329 327 323 328 341 342 342 342 347 349 348 349 343 349 349 344 338 331 329 328 326 327 332 333 325 318 316 316 316 317 317 317 316 316 316 319 321 322 323 323 323 323 322 322 322 321 321
322 324 329 325 324 335 342 341 343 341 346 347 347 348 344 347 349 346 334 331 337 333 334 337 328 319 319 319 319 319 319 319 319 319 320 320 321 322 323 323 322 322 323 323 323 322 322 322 322
319 324 322 325 328 336 342 341 341 339 344 343 342 350 348 347 349 346 336 337 340 337 324 320 319 320 320 321 321 320 320 320 320 321 323 323 324 324 324 324 325 325 325 324 324 324 325 325 326
322 321 320 322 323 335 339 342 341 339 341 342 344 348 349 347 345 345 343 339 341 335 321 320 321 322 322 321 321 321 321 321 321 323 324 324 325 325 326 326 327 327 326 326 326 326 326 326 327
321 322 320 320 319 327 335 340 342 340 340 339 343 349 349 346 345 345 339 342 343 338 322 321 322 322 322 321 321 321 322 322 322 324 325 325 326 326 326 327 327 327 327 327 328 328 329 329 329
321 320 321 321 318 321 332 337 340 340 340 341 345 350 349 341 338 343 342 340 342 342 327 322 322 322 322 322 321 322 322 323 323 324 324 325 326 326 327 327 328 329 330 330 330 329 329 328 327
321 324 322 321 319 324 327 332 338 336 339 342 348 351 349 337 342 338 338 339 341 340 336 323 324 323 322 323 323 322 323 324 324 324 325 326 326 327 328 329 330 330 329 328 327 325 322 319 316
323 322 325 323 327 328 332 330 332 337 341 342 345 349 350 344 335 339 342 339 341 342 340 333 324 324 324 324 325 324 323 324 325 326 325 326 328 329 330 331 330 329 327 324 320 315 312 310 308
324 326 325 325 322 334 330 333 332 338 343 343 345 347 349 350 346 342 342 343 343 342 343 342 332 327 328 327 328 326 324 325 326 327 328 330 330 331 331 331 328 324 318 314 311 309 309 310 311
324 326 324 325 324 325 329 330 330 335 342 344 344 346 347 348 346 342 342 346 349 347 346 344 342 337 334 334 333 326 326 327 327 330 331 332 332 332 329 322 316 312 309 309 309 310 311 311 310
322 323 323 324 322 323 325 325 325 327 340 342 344 345 345 346 346 345 347 350 349 348 347 346 344 341 328 332 326 325 327 329 331 331 331 331 331 321 317 311 309 309 309 310 310 310 309 309 309
321 323 324 324 323 323 324 327 324 325 332 337 342 343 343 343 336 338 339 344 347 343 343 343 342 330 327 325 325 327 330 332 333 333 330 327 317 311 310 309 309 309 310 310 309 309 309 308 308
323 324 326 326 324 323 324 327 326 324 333 337 334 333 334 334 333 335 336 335 335 336 333 334 334 326 325 326 330 332 333 333 331 331 328 313 309 309 309 309 309 309 309 309 310 310 309 307 308
325 323 324 324 326 326 323 326 326 323 328 326 334 334 333 329 329 328 328 328 327 328 328 328 328 326 327 330 332 332 331 331 330 325 312 309 308 309 309 309 309 309 310 310 309 308 308 308 308
324 322 323 325 326 326 325 326 326 326 328 329 335 333 329 328 328 328 326 326 326 326 326 326 325 327 329 330 331 332 331 329 325 311 308 308 308 308 308 308 308 309 309 309 308 309 309 309 309
322 324 324 323 325 327 325 326 326 330 330 331 334 331 328 324 323 323 324 325 325 325 326 327 328 329 331 331 330 329 328 321 310 308 308 308 308 307 307 308 308 308 308 308 309 310 310 310 310
324 327 327 327 327 326 323 326 327 330 332 335 332 329 326 323 321 321 323 324 325 325 327 329 331 332 332 331 329 324 317 311 308 308 307 307 307 306 307 308 308 308 308 309 310 310 310 310 310
324 327 330 327 327 325 323 328 330 330 332 332 330 326 323 321 321 320 319 321 325 327 329 329 328 327 324 321 320 315 308 308 308 307 306 306 306 306 306 307 307 308 307 308 309 309 310 310 310
323 326 325 327 323 325 325 329 330 331 332 331 330 326 323 321 319 318 323 324 324 324 325 323 320 318 315 312 309 308 308 307 306 305 305 304 305 304 305 306 307 307 307 308 309 309 309 310 310
324 322 327 327 330 328 326 327 330 332 332 333 331 329 324 320 318 321 322 323 323 321 320 318 314 311 312 309 307 307 306 305 303 302 300 301 301 302 304 305 307 307 307 307 307 308 308 309 309
323 324 324 327 327 330 329 327 328 332 331 333 332 329 324 321 319 318 322 320 320 319 317 318 313 309 307 307 306 305 303 301 300 300 301 301 301 301 303 304 305 307 306 307 307 307 307 308 307
322 325 328 328 332 328 329 328 327 331 330 330 331 328 324 321 319 317 319 318 319 318 313 311 308 306 306 305 303 302 301 299 298 297 298 297 296 297 300 303 304 304 305 306 305 305 306 307 307
Wind_Speed
4 3 1 2 3 1 3 4 2 2 2 1 10 5 4 3 1 3 14 10 14 14 16 15 13 12 11 10 10 10 9 9 9 7 6 5 4 3 3 2 2 3 4 4 5 5 5 5 5
3 2 1 1 2 2 3 3 7 4 3 8 11 6 4 2 3 8 13 14 13 13 14 14 13 11 10 9 9 8 8 7 6 5 3 3 2 2 1 1 1 2 2 3 3 3 4 5 5
1 1 2 0 1 1 2 6 5 7 5 4 5 5 3 2 6 13 12 13 14 13 13 13 12 11 10 9 8 7 6 5 4 4 4 3 3 1 1 0 1 2 3 4 5 5 5 6 7
0 1 3 2 0 3 2 5 9 14 3 4 8 7 5 5 8 8 13 14 13 12 11 11 11 10 9 9 8 7 7 6 5 4 3 2 2 1 1 2 3 4 5 6 7 7 8 9 10
1 1 1 1 0 0 1 6 14 10 5 7 5 6 6 10 10 12 15 14 13 13 12 12 11 11 10 9 8 7 6 5 4 3 2 1 1 2 2 3 4 5 6 7 8 9 9 10 11
1 1 2 0 2 1 1 11 13 8 7 8 7 10 7 10 13 14 13 13 13 12 13 12 11 10 9 8 7 6 5 4 3 2 1 1 1 1 2 4 6 6 6 6 7 7 7 9 10
1 1 2 1 3 2 4 11 16 10 11 7 12 9 4 15 17 13 12 13 13 13 12 12 11 10 9 8 7 6 5 4 3 3 3 2 2 1 2 4 7 6 6 6 6 7 8 10 11
3 1 4 2 1 3 6 9 9 8 8 9 10 5 7 18 20 16 15 15 14 13 13 12 12 11 10 9 8 7 7 7 7 7 7 7 7 7 7 4 4 4 5 6 7 9 10 13 15
3 2 4 4 5 3 9 9 8 7 10 8 12 3 8 23 22 19 18 18 17 16 14 13 13 12 12 12 11 10 9 8 8 7 6 7 6 5 2 1 3 6 8 9 11 14 15 17 20
2 2 4 3 4 3 14 12 14 9 10 9 12 6 15 24 23 21 21 21 19 17 16 15 15 16 15 14 12 10 9 8 7 6 6 5 3 3 3 6 8 11 13 16 18 19 21 23 25
3 2 4 6 6 5 12 12 12 11 10 18 23 15 23 26 25 21 20 19 18 16 15 18 18 17 16 14 12 11 10 8 7 6 5 5 5 6 8 10 13 16 19 21 23 25 26 28 31
3 7 6 2 9 7 9 13 15 19 7 18 15 18 25 27 26 24 21 21 19 17 18 19 19 18 17 15 13 11 10 8 7 7 7 7 9 11 13 16 19 22 25 28 31 33 35 36 38
4 4 6 12 8 13 9 16 14 22 13 8 17 20 26 27 25 24 24 22 22 21 21 21 20 20 19 16 15 12 10 9 10 9 10 12 13 16 18 21 24 28 31 34 36 38 39 41 42
4 8 10 6 5 7 10 10 12 16 21 13 22 24 26 28 29 26 28 27 26 24 22 23 21 21 19 17 15 13 12 13 13 13 15 16 19 21 23 26 29 33 35 36 38 39 41 43 45
2 5 1 2 3 4 12 5 16 17 17 22 21 22 24 28 28 31 30 31 29 26 24 25 24 22 20 17 16 16 16 17 16 17 17 20 23 25 27 30 31 32 33 35 37 39 42 43 45
1 1 2 4 3 4 2 7 15 11 16 22 21 21 24 29 33 31 32 33 32 30 29 25 26 24 22 20 18 18 19 19 18 18 19 22 24 25 25 28 31 34 36 38 40 41 44 45 44
2 3 2 2 2 7 6 3 1 14 16 19 22 23 25 27 31 33 34 34 35 34 33 30 29 27 24 23 23 22 20 19 19 19 20 21 22 25 28 32 35 37 39 40 41 41 41 40 38
5 4 2 2 4 4 7 11 8 8 18 23 24 23 25 28 36 36 34 36 36 38 38 33 32 29 28 29 25 22 19 18 17 18 18 22 26 30 32 34 36 37 37 37 37 38 35 33 29
3 1 2 4 2 4 7 8 6 5 16 24 26 23 26 33 20 24 33 34 35 36 38 37 33 31 25 24 22 19 18 15 16 17 21 25 31 33 34 34 36 36 36 35 34 32 27 23 23
5 5 7 5 1 4 2 6 2 3 8 18 17 18 17 12 12 19 23 30 35 35 36 35 31 26 24 22 19 16 13 15 18 22 28 33 32 32 33 34 34 34 33 31 28 27 28 25 24
6 8 6 5 1 2 4 4 4 4 5 6 5 5 3 7 11 21 26 26 31 35 34 32 28 24 23 19 13 10 12 17 21 26 32 30 30 31 31 31 32 31 29 27 26 25 24 25 23
5 8 8 5 4 3 2 3 2 7 10 13 14 13 12 13 13 14 19 24 26 27 27 25 26 26 20 15 9 7 12 20 29 31 29 28 28 27 28 29 28 27 27 23 23 21 21 22 24
1 1 5 4 4 2 1 3 3 5 5 9 14 14 13 12 2 8 13 18 19 20 21 21 21 19 14 8 7 13 23 40 29 26 24 24 23 23 25 24 24 25 25 23 22 22 22 22 23
7 4 5 3 1 4 2 3 2 2 3 6 8 10 10 8 4 5 8 12 16 18 17 16 14 13 9 8 14 30 30 20 21 21 21 21 20 21 21 22 23 24 24 24 23 22 21 22 22
4 3 2 4 4 3 2 2 2 2 0 2 2 3 5 5 5 8 11 16 20 21 20 18 14 13 13 8 14 12 14 16 17 18 18 18 19 19 20 20 21 23 22 21 22 22 22 22 23
4 4 3 4 4 1 2 3 2 1 4 3 3 3 3 4 7 11 14 18 19 19 16 12 6 1 2 4 8 11 11 14 14 14 16 16 16 16 16 18 19 21 22 21 21 21 22 24 25
5 4 3 6 2 3 1 2 5 6 4 4 6 5 6 8 10 12 16 17 16 13 9 6 3 1 5 8 10 10 12 11 11 13 14 15 15 15 16 16 17 19 21 22 22 21 23 23 25
2 9 4 2 4 6 4 3 5 10 8 8 9 9 8 9 12 14 16 16 12 9 6 3 2 5 8 9 9 9 10 11 12 14 15 15 16 16 16 16 16 16 19 21 20 22 22 23 24
4 4 4 3 0 4 4 4 3 12 12 11 11 10 11 12 13 15 16 13 10 7 2 4 6 5 6 8 9 9 9 11 13 15 15 17 18 16 14 15 16 16 16 18 20 21 20 22 25
1 4 5 4 5 1 1 2 2 7 9 11 10 11 12 13 15 15 15 13 9 2 1 2 4 7 7 8 7 7 10 13 13 15 19 21 19 16 14 13 15 17 17 17 18 21 22 22 24
Wind_Direction
354 27 87 133 223 142 134 189 287 171 91 74 143 186 183 66 350 5 149 141 149 157 155 156 150 143 141 144 144 144 142 142 143 145 147 141 124 111 103 90 67 45 33 23 23 26 21 15 5
6 21 155 186 239 181 127 178 209 192 55 125 131 116 83 63 104 139 139 147 150 156 158 158 155 154 154 156 156 151 148 148 145 141 134 125 133 159 147 99 58 31 6 354 359 356 350 344 336
47 81 256 151 105 32 100 197 156 146 95 125 129 68 53 34 141 146 153 154 153 159 156 156 154 154 156 156 156 150 144 141 142 151 160 170 182 173 193 299 331 332 332 331 333 338 335 335 334
156 164 49 264 229 86 54 162 144 146 126 64 119 87 96 117 139 154 151 153 155 156 149 146 142 145 149 151 152 148 145 147 147 140 144 154 170 190 236 305 335 348 351 345 340 341 343 339 335
155 155 187 152 359 349 206 167 155 151 139 140 154 134 127 156 143 151 156 161 163 159 156 152 146 146 147 146 145 142 141 144 147 158 173 197 244 285 319 0 10 8 356 344 337 336 336 335 335
171 137 206 137 75 37 99 156 158 164 159 154 129 134 138 163 152 153 160 163 164 165 164 160 155 151 148 147 149 151 157 158 158 162 148 100 45 43 35 7 352 353 359 10 11 7 5 360 352
196 186 133 283 40 106 128 151 168 158 158 166 152 150 159 173 172 166 162 163 165 166 166 164 161 157 155 151 153 148 146 136 131 109 93 80 69 68 48 63 64 52 33 19 5 349 339 335 331
122 124 150 203 183 109 144 158 173 163 163 156 172 165 178 182 177 171 171 168 167 169 167 166 160 155 151 149 142 135 129 121 112 106 97 90 91 93 93 72 40 17 357 336 327 320 314 311 310
131 179 139 143 176 135 172 180 176 155 153 179 186 187 197 177 175 178 175 172 172 172 166 161 159 155 151 144 138 135 128 123 120 111 105 105 110 111 92 9 324 314 307 306 304 304 306 306 305
170 207 179 191 180 181 179 187 166 169 165 204 197 202 183 180 182 185 182 179 175 175 162 169 166 156 149 151 149 145 147 148 140 135 133 134 154 194 235 264 281 291 297 300 301 301 302 302 301
159 204 202 218 202 166 177 182 178 175 195 202 202 187 178 184 190 192 191 188 185 172 167 166 162 162 163 163 166 166 166 168 164 162 170 191 223 250 268 281 287 293 297 299 299 298 297 297 297
232 238 220 245 203 178 184 181 195 200 210 207 205 192 183 187 195 195 198 196 193 187 177 175 174 176 177 179 180 179 181 186 190 205 223 244 261 273 282 289 294 298 300 301 301 300 299 297 296
233 267 234 261 239 227 197 195 190 218 227 225 203 197 193 192 198 200 204 205 205 197 191 191 191 189 190 188 192 193 198 207 219 232 248 262 274 282 287 292 297 299 300 298 296 294 292 290 289
217 258 275 292 288 194 196 196 196 232 213 220 200 197 195 200 203 204 208 211 212 208 204 203 204 206 204 199 200 206 215 226 235 246 259 271 279 287 290 292 293 294 293 292 291 291 290 290 290
264 291 317 74 131 164 162 191 220 218 198 206 203 197 198 208 209 212 214 214 215 217 216 216 215 214 216 215 214 220 229 238 247 256 266 274 279 282 286 287 290 292 292 290 289 290 291 292 292
263 258 183 63 162 139 214 196 231 204 189 208 211 204 206 213 220 219 219 223 223 225 225 225 225 226 222 226 231 234 239 245 253 262 270 277 281 286 291 294 295 296 297 298 299 299 300 301 302
44 194 155 98 38 153 225 240 319 191 195 212 210 210 212 217 223 223 225 227 229 232 234 231 232 234 232 231 238 240 241 247 255 266 274 282 290 297 300 299 300 301 302 302 303 304 306 307 307
208 189 200 202 180 200 208 239 255 209 208 220 217 214 217 221 228 228 228 232 233 238 241 240 239 241 239 237 237 236 243 252 265 273 285 294 306 305 302 304 305 306 307 309 310 310 311 312 312
147 174 265 266 274 249 218 253 267 193 222 229 226 218 222 228 231 235 237 239 241 243 244 246 242 241 238 226 224 232 243 258 274 292 301 307 310 306 308 310 311 313 314 314 314 316 317 316 316
188 208 226 266 248 209 210 263 256 283 255 251 250 246 255 255 250 247 248 241 244 245 246 244 238 227 221 219 227 232 249 272 286 294 311 313 311 310 314 317 317 318 319 320 320 321 320 316 321
206 213 209 238 121 88 302 229 17 32 53 96 64 26 340 281 269 261 253 245 242 242 242 240 225 218 216 217 221 236 264 278 293 303 309 309 314 318 320 324 326 327 329 325 326 328 331 330 332
230 218 247 205 186 252 319 279 66 2 71 44 21 10 349 306 280 251 245 237 236 235 233 231 220 217 211 205 201 242 283 311 311 310 310 315 319 324 329 333 336 337 333 329 337 341 338 332 327
313 292 183 165 141 235 126 262 103 6 38 12 8 8 5 5 81 195 203 218 219 214 207 202 200 192 190 193 253 283 313 309 300 305 312 318 324 331 337 341 342 341 340 341 341 340 336 332 328
156 112 76 84 113 246 55 290 155 12 320 320 3 19 24 37 74 162 175 167 158 155 157 161 169 172 190 232 275 272 282 286 302 311 319 325 334 339 347 349 346 348 353 351 347 345 345 341 334
161 153 143 202 215 276 79 226 348 2 123 276 320 31 42 51 87 123 143 146 145 147 149 151 161 187 200 253 274 293 289 304 315 318 329 335 339 344 356 349 353 354 357 354 358 358 353 348 342
176 203 175 213 221 205 134 218 128 63 129 153 144 136 105 94 118 131 136 148 151 151 157 165 170 242 323 298 303 304 319 317 319 331 337 335 339 344 339 349 355 352 357 354 354 358 357 358 354
150 191 83 113 71 240 187 225 213 169 179 187 193 186 154 139 144 147 154 153 155 158 156 144 119 360 334 337 336 327 319 335 338 335 335 333 328 323 329 339 351 351 354 358 359 2 0 358 359
207 135 153 130 192 238 188 235 235 202 212 211 214 206 171 161 157 156 157 165 162 154 150 147 34 5 343 333 332 341 351 346 341 342 333 326 324 320 319 331 338 351 353 353 353 1 3 5 7
147 178 67 100 307 238 236 221 203 188 198 204 212 199 183 174 170 167 172 167 163 161 130 338 349 357 354 355 2 358 343 347 347 342 335 324 322 321 317 327 332 340 349 347 352 355 358 359 1
236 169 171 224 190 169 274 203 196 174 182 201 206 196 185 179 176 178 175 176 172 174 61 341 356 13 4 2 356 353 358 359 358 349 340 334 324 314 317 325 327 330 334 335 345 349 350 355 357